Location: Elliott Island road
(38.3470°N, 75.9376°W)
Time: 01:42:49
(UTC-04:00)

Hubble Space Telescope - Visible Passes

Search period start: 26 April 2018 00:00
Search period end: 06 May 2018 00:00
Orbit: 537 x 541 km, 28.5° (Epoch: 25 April)

Date Brightness Start Highest point End Pass type
(mag) Time Alt. Az. Time Alt. Az. Time Alt. Az.
26 Apr 2.7 21:18:50 10° SSW 21:20:37 15° S 21:20:37 15° S visible
27 Apr 2.4 21:08:11 10° SSW 21:10:59 18° S 21:11:13 18° SSE visible
28 Apr 2.4 20:57:38 10° SW 21:00:35 19° S 21:01:43 17° SSE visible
29 Apr 2.4 20:47:07 10° SW 20:50:10 20° S 20:52:07 15° SE visible
30 Apr 2.4 20:36:39 10° SW 20:39:45 20° S 20:42:26 12° SE visible
30 Apr 3.4 22:17:40 10° SW 22:17:47 10° SW 22:17:47 10° SW visible
01 May 2.4 20:26:14 10° SW 20:29:20 21° S 20:32:27 10° SE visible
01 May 3.3 22:07:31 10° SW 22:08:03 12° SW 22:08:03 12° SW visible
02 May 3.2 21:57:30 10° SW 21:58:17 12° SW 21:58:17 12° SW visible
03 May 3.2 21:47:46 10° SW 21:48:30 11° SSW 21:48:30 11° SSW visible
